Theta_e
292 291 291 292 294 298 298 298 300 300 300 302 302 303 305 313 325 327 330 323 328 337 343 347 347 348 350 349 349 348 347 346 344 342 342 341 340 338 336 336 336 334 334
289 289 289 290 292 294 296 297 298 299 299 299 301 302 302 305 317 325 328 329 326 331 338 344 346 347 350 350 349 349 348 346 343 342 341 340 338 337 336 335 334 334 333
288 286 287 289 290 292 293 296 296 297 296 298 298 299 301 303 306 316 325 326 327 324 329 338 342 344 348 349 349 349 348 346 344 341 340 339 338 337 335 333 332 333 331
287 285 285 286 289 287 288 291 295 296 295 296 296 297 298 301 302 305 321 324 325 326 326 330 335 340 343 349 349 349 347 345 343 341 340 339 337 336 334 333 332 332 330
286 284 284 285 285 285 286 288 290 293 294 295 296 297 298 298 300 303 304 320 323 324 326 327 327 329 336 344 348 349 348 345 343 341 339 338 337 335 334 332 331 331 328
284 283 283 283 283 283 283 284 285 287 291 295 296 296 297 298 298 299 303 310 321 323 324 326 327 326 324 336 342 347 348 346 343 340 339 338 336 335 334 332 330 330 329
283 282 282 281 281 281 281 283 284 285 287 292 292 293 294 296 296 299 303 305 314 321 322 324 326 328 329 329 335 341 347 346 343 340 338 337 335 334 333 332 331 330 328
281 281 281 280 280 280 281 282 284 286 288 291 289 290 288 290 294 297 300 305 312 320 320 323 325 327 328 329 329 334 340 344 343 340 338 336 334 334 333 332 331 330 329
281 280 280 279 279 280 280 281 280 280 281 286 290 291 286 285 289 296 300 306 313 318 320 321 323 325 327 328 328 329 330 331 338 339 337 334 334 333 333 332 331 330 329
279 280 280 279 279 280 278 278 280 280 281 280 286 291 294 292 287 285 294 297 301 302 313 319 321 323 325 328 324 322 321 322 328 334 333 332 333 333 332 332 331 330 329
279 279 279 278 278 278 277 277 277 278 281 281 283 285 288 291 292 289 286 290 298 302 301 314 320 321 324 325 326 323 318 322 323 327 327 328 329 331 331 331 331 330 329
277 278 278 277 277 277 276 276 277 279 278 278 278 281 285 287 288 289 288 290 292 295 301 302 314 320 322 324 321 315 314 319 322 322 323 323 325 327 329 330 330 330 330
275 275 276 276 276 276 276 276 277 275 276 276 277 282 286 287 292 291 290 289 291 295 297 300 302 319 321 323 323 310 311 319 322 322 321 321 323 324 325 327 328 328 328
274 275 275 275 276 276 276 276 275 276 278 277 277 280 284 286 289 292 290 290 289 291 294 296 301 309 321 323 320 306 318 315 318 320 320 320 321 321 322 324 326 326 326
274 274 275 274 274 275 275 275 274 274 274 275 275 276 278 283 286 293 293 292 291 287 288 294 297 308 321 319 311 319 321 312 317 317 318 318 319 320 321 323 324 325 326
272 273 273 273 273 274 274 274 274 274 273 274 276 276 279 283 284 291 293 294 294 292 287 293 297 300 315 318 310 320 317 308 312 314 315 315 317 318 319 320 322 323 324
271 271 272 272 272 272 273 273 273 273 272 273 273 273 275 278 282 287 292 293 294 295 290 292 296 299 300 317 313 319 312 318 313 309 312 313 314 315 316 318 319 320 322
270 270 270 270 270 270 271 271 271 272 271 271 272 273 274 279 282 284 291 291 292 294 293 290 295 297 296 313 313 317 314 316 315 308 311 312 313 313 314 315 316 316 317
269 269 269 268 268 269 269 270 270 270 271 271 271 271 273 276 279 282 289 289 291 294 294 293 292 295 296 314 313 311 314 314 314 308 311 310 311 312 312 313 313 311 310
266 266 267 267 267 267 268 269 269 270 270 271 272 272 273 275 278 281 284 287 289 289 289 291 290 293 296 311 312 309 307 311 309 311 309 310 309 308 311 311 309 306 307
265 265 265 265 265 266 267 267 269 270 270 270 271 272 273 277 279 282 283 286 288 287 287 287 288 289 299 308 307 308 307 308 308 311 310 309 311 311 311 307 304 303 307
263 263 264 264 264 266 270 272 273 272 272 272 273 274 275 276 279 282 284 287 289 286 285 285 286 287 298 308 308 307 305 303 299 308 307 307 313 311 313 314 308 307 307
262 263 263 263 264 265 269 272 274 273 273 273 273 273 274 276 278 281 284 287 289 292 290 286 285 286 304 309 307 305 304 303 302 306 308 305 306 310 312 311 305 306 305
262 262 262 263 264 265 270 272 273 273 273 274 274 274 274 275 277 280 283 284 285 286 287 288 288 289 290 311 309 308 306 303 305 306 308 301 294 306 292 308 304 305 305
260 260 263 262 262 263 269 272 273 273 274 275 275 274 274 275 278 281 281 281 283 285 289 289 291 292 294 305 308 307 300 298 297 301 304 302 290 287 286 288 303 304 304
261 262 262 262 263 263 269 272 273 272 273 274 275 275 276 275 278 282 281 282 281 283 285 285 286 298 302 303 303 306 303 299 299 298 301 301 292 293 289 286 290 301 303
Wind_Speed
4 4 5 6 7 7 7 8 7 7 8 9 9 10 12 15 15 9 9 14 18 24 28 28 29 29 28 29 27 26 27 27 27 26 26 26 25 25 24 22 21 20 19
4 7 6 6 6 8 8 9 8 8 8 8 10 10 10 12 15 15 11 11 16 21 27 30 30 31 31 30 29 28 28 29 29 28 27 27 27 26 25 24 23 20 21
5 5 4 5 5 8 12 10 10 8 8 7 10 9 9 10 11 16 14 13 14 18 25 30 31 33 31 32 32 30 31 32 32 30 29 28 28 27 27 26 24 20 20
6 5 5 5 5 7 8 9 9 10 10 9 9 8 9 10 12 13 15 13 12 13 15 27 30 33 33 32 33 33 33 33 33 33 31 31 30 30 29 27 26 23 22
5 4 4 5 7 6 6 8 9 10 10 10 10 11 10 10 12 10 13 16 17 15 13 17 27 27 32 33 33 35 35 35 35 34 33 33 32 31 31 30 28 24 24
5 6 6 7 8 7 6 7 10 10 13 12 11 13 12 12 12 13 15 12 16 17 17 17 12 16 22 32 35 35 37 37 37 37 35 34 34 33 32 31 29 26 24
6 6 5 8 8 8 9 10 10 12 10 10 12 13 13 14 15 15 12 13 15 18 17 16 13 11 13 26 31 36 40 39 39 39 38 36 36 35 33 32 30 27 26
6 7 5 7 8 8 9 9 10 10 12 8 11 12 13 11 9 14 14 14 17 14 16 19 19 18 14 13 21 30 34 40 43 42 41 39 37 36 34 32 30 29 29
6 7 6 7 9 8 8 7 10 13 13 10 12 11 7 8 7 3 7 6 12 11 15 16 19 18 17 14 17 22 32 28 46 46 45 43 41 38 37 34 32 30 30
7 6 6 7 10 7 8 8 9 10 11 14 11 12 17 14 11 13 6 6 4 4 12 15 15 17 18 14 18 19 23 12 27 47 48 43 41 38 38 36 34 32 31
6 7 7 8 9 7 9 11 12 12 10 11 12 11 15 14 14 14 16 13 10 8 4 10 13 14 17 16 13 15 17 19 15 34 44 43 41 39 37 36 35 33 31
6 7 9 8 9 10 10 11 12 11 12 13 13 15 13 12 11 12 14 15 13 15 11 7 15 14 14 15 16 17 20 22 20 22 34 36 36 36 36 35 35 34 34
8 9 9 10 9 11 12 13 11 14 15 14 17 12 12 13 14 12 12 12 13 11 10 8 12 14 13 13 15 18 23 28 34 45 44 39 37 34 35 36 35 35 33
10 12 11 12 13 13 13 13 12 12 14 12 17 16 13 13 14 14 12 10 13 11 12 18 12 16 11 14 16 21 19 31 34 36 40 39 37 33 33 34 34 33 32
11 14 14 15 15 15 15 15 12 15 15 14 15 17 16 14 14 13 9 10 12 12 11 12 9 18 14 9 13 19 20 37 35 37 35 35 35 30 30 31 31 32 31
14 15 16 16 16 15 15 15 14 15 16 14 12 15 15 13 13 14 11 10 13 12 15 9 12 12 15 10 17 13 22 22 36 38 34 33 33 30 28 29 30 30 31
15 16 17 18 17 17 16 16 17 18 19 17 17 18 20 20 14 16 11 10 11 10 13 11 15 16 18 18 16 17 17 19 17 25 29 31 29 26 26 27 28 28 29
15 17 17 18 18 18 17 18 18 17 18 19 18 18 18 14 18 17 11 13 11 13 12 18 12 12 13 17 20 22 19 17 20 30 32 30 30 27 26 26 24 24 22
15 16 17 18 19 19 18 18 18 19 19 19 19 19 18 20 18 13 15 9 10 10 13 12 13 10 13 16 16 17 20 20 18 33 34 29 29 29 27 25 24 21 22
16 16 16 18 18 19 20 20 20 19 18 17 19 18 18 21 19 16 13 12 10 9 11 8 9 14 16 17 16 17 17 14 16 18 21 23 24 25 25 26 25 22 23
14 16 18 17 18 17 14 18 19 19 19 19 19 19 19 21 30 27 13 11 10 8 8 10 13 10 17 19 21 15 17 16 18 18 17 12 14 14 15 20 19 24 25
15 16 17 18 18 14 28 31 27 18 19 19 18 17 18 23 25 33 34 31 18 11 12 9 12 14 29 20 17 19 18 18 16 11 19 15 16 16 14 13 22 27 25
15 17 17 18 18 19 31 32 30 18 18 18 18 18 16 15 21 17 23 28 26 23 21 11 16 22 18 23 21 23 23 23 19 17 19 16 12 16 13 11 23 26 26
15 16 17 17 18 17 32 32 31 19 17 20 19 20 19 19 19 18 14 15 15 12 13 11 17 19 23 23 25 27 27 23 16 17 19 16 7 13 3 9 24 26 27
15 15 15 17 18 19 31 31 27 16 16 21 19 18 17 19 25 30 18 16 16 16 15 24 30 39 45 32 27 19 19 19 16 17 15 11 4 5 2 3 11 25 27
15 14 16 15 19 21 28 30 27 13 15 14 13 17 22 21 30 28 19 16 17 15 13 17 19 23 27 26 34 27 22 23 18 15 14 15 8 8 4 2 3 11 13
Wind_Direction
355 347 342 335 330 323 318 316 309 304 310 308 309 310 304 307 279 265 262 239 239 238 241 237 228 229 217 208 200 191 189 181 177 179 176 172 170 165 164 163 163 158 156
357 359 337 330 329 328 315 306 300 295 293 296 296 296 292 296 303 270 260 255 237 240 239 241 230 226 221 212 202 196 190 184 178 179 176 174 172 167 166 164 159 167 160
14 347 331 326 321 332 320 307 305 291 289 282 280 286 289 282 288 298 259 257 255 235 237 241 237 226 222 216 205 198 192 187 180 179 178 175 171 169 167 164 161 168 157
8 353 336 318 323 321 305 306 298 296 298 293 286 281 284 279 276 277 279 251 251 249 234 237 240 230 221 216 211 201 194 189 184 179 179 176 172 171 167 164 164 167 169
358 342 326 319 318 308 315 309 305 297 288 287 283 283 277 275 277 275 272 272 244 247 245 235 232 234 225 218 214 206 198 191 185 182 181 177 173 172 169 167 164 165 173
345 338 329 329 327 316 311 310 300 293 287 282 281 281 279 274 270 261 256 259 258 240 242 241 229 229 230 224 219 214 201 194 187 182 180 177 174 171 171 166 161 169 170
337 325 318 330 318 314 308 300 292 289 285 293 290 285 282 274 269 257 248 245 252 241 234 239 235 224 224 224 223 220 207 195 190 183 180 176 175 170 170 164 162 168 173
309 312 312 304 305 293 286 285 284 302 291 289 274 284 288 290 274 247 241 233 236 237 233 231 229 227 221 217 221 223 224 201 192 186 180 175 175 170 168 164 162 170 175
281 285 279 294 295 277 279 304 299 289 291 286 288 266 277 256 344 295 292 260 242 224 230 225 226 227 219 216 214 218 220 234 196 186 177 174 173 172 165 164 165 173 175
278 267 264 273 278 271 288 295 287 285 293 285 277 273 261 267 268 291 283 311 282 298 278 224 226 219 219 216 211 209 206 188 227 186 176 172 168 171 165 165 165 174 177
262 280 274 271 280 281 289 290 281 273 262 275 277 275 288 254 251 254 274 277 281 271 271 290 220 218 216 214 214 208 200 211 190 215 170 163 165 169 166 165 168 172 173
292 274 275 282 285 282 281 284 275 273 279 271 274 272 262 273 246 242 255 266 268 278 270 299 265 216 215 214 212 208 189 187 174 181 148 157 159 168 165 165 172 171 174
287 282 287 288 283 277 276 276 274 277 270 263 262 270 275 268 272 247 262 269 275 274 270 250 302 228 216 214 214 189 179 190 184 184 166 166 157 169 168 172 173 173 173
289 292 286 283 283 281 278 275 272 272 274 277 275 273 282 263 282 248 240 258 267 263 272 259 264 282 193 207 205 180 174 163 162 165 155 155 159 168 169 173 172 170 174
294 294 291 288 283 279 277 275 270 270 267 269 267 264 266 270 281 245 234 233 246 261 263 261 264 291 191 188 157 187 183 164 162 157 156 154 155 164 173 170 173 169 175
292 290 289 287 285 281 280 277 272 268 270 266 270 279 276 268 271 257 233 234 234 239 257 247 242 252 264 181 163 181 154 153 155 154 157 158 156 165 170 172 172 173 176
292 291 290 289 286 284 282 277 271 272 268 268 269 265 264 266 265 276 225 229 235 247 242 256 250 244 290 180 174 167 154 155 148 147 155 159 156 164 168 172 171 176 176
292 291 292 292 291 288 285 279 276 272 271 269 268 268 272 272 267 282 242 232 231 240 248 253 253 261 268 187 186 174 168 162 159 158 161 166 163 165 171 171 169 173 168
294 295 295 291 291 289 285 278 274 272 269 269 268 269 267 268 263 265 261 236 243 239 242 245 251 273 261 190 187 154 162 162 163 160 157 163 165 168 172 172 168 162 153
301 299 294 292 290 289 285 283 281 278 273 268 267 262 265 261 261 263 273 236 251 253 268 237 253 256 238 216 170 165 155 157 151 160 155 169 165 168 169 171 163 158 157
304 299 298 295 293 286 283 282 277 273 268 264 262 262 262 264 261 258 259 270 216 238 255 262 256 280 241 198 171 162 155 152 156 154 154 167 171 177 173 168 166 161 162
307 302 298 296 296 289 290 290 287 276 274 273 271 264 261 263 258 257 259 259 249 212 233 245 260 260 250 173 162 158 151 147 148 172 153 176 181 185 182 180 175 167 162
307 306 304 302 298 294 293 290 286 276 270 264 266 268 265 259 266 253 256 261 274 229 229 252 259 247 228 168 164 159 159 156 165 157 164 177 187 182 175 174 166 164 161
311 310 304 301 305 302 300 298 293 281 272 267 253 254 258 263 259 262 257 254 249 237 235 252 248 263 264 180 169 167 167 156 150 155 171 171 184 166 150 169 165 169 164
309 301 303 311 307 300 302 303 298 285 282 281 250 245 246 254 255 258 256 261 269 265 272 273 273 266 256 181 171 155 154 151 157 165 183 156 167 114 69 96 173 174 166
304 306 306 304 302 296 298 310 307 293 291 309 268 252 243 246 255 255 246 245 250 259 279 287 284 260 190 166 172 164 160 158 159 164 183 166 149 141 128 7 153 174 169